Theta_e
310 311 311 311 312 312 312 313 314 314 315 316 316 316 316 315 315 317 320 319 320 321 320 320 320 319 314 306 306 313 322 318 313 311 306 305 304 302 300 300 302 300 301 302 303 304 304
310 310 311 311 311 312 312 313 314 313 314 315 315 315 316 315 316 317 317 319 319 320 319 319 319 318 310 300 313 312 312 311 310 309 306 306 304 304 302 301 301 301 302 302 303 304 304
309 310 311 312 312 313 313 312 312 313 314 314 315 315 314 315 316 315 315 319 318 319 319 319 318 315 307 305 312 313 312 311 311 310 307 309 308 306 305 301 303 302 299 300 300 301 301
308 309 309 310 311 312 313 312 312 312 313 314 314 314 314 314 315 314 315 318 318 319 318 318 318 312 303 313 315 312 313 312 312 312 309 310 309 306 304 305 301 299 297 294 298 301 302
307 307 307 308 309 310 311 312 313 312 312 313 313 313 313 313 313 313 315 317 317 319 318 317 312 307 301 315 309 313 312 309 309 310 310 310 308 303 303 299 296 295 291 291 294 299 300
306 307 306 305 306 308 310 311 312 312 312 312 312 313 313 313 313 312 313 317 318 317 316 315 312 304 307 305 309 311 311 310 307 307 305 305 302 298 297 296 289 290 291 292 292 297 299
304 305 305 307 306 306 307 309 310 312 312 311 312 312 313 312 313 312 313 314 307 305 308 304 304 304 303 309 310 307 310 307 306 303 298 300 296 293 295 297 294 293 292 291 294 299 297
303 304 305 305 305 307 307 308 309 310 312 311 311 312 312 312 312 312 311 309 308 309 300 308 306 307 309 309 302 305 309 302 301 296 298 296 293 297 297 296 296 294 292 292 295 296 296
302 304 304 304 305 307 308 309 308 309 311 311 311 311 312 311 312 309 307 308 316 313 301 303 307 304 305 307 302 302 306 302 299 295 296 293 295 299 296 294 292 293 291 291 291 295 297
302 303 304 304 306 308 310 310 309 308 311 310 311 311 311 310 305 306 303 313 317 314 293 295 300 305 307 305 299 306 307 303 298 295 295 295 298 296 295 294 295 290 295 294 292 292 288
302 303 303 303 306 308 310 310 309 308 310 310 310 310 310 310 304 301 306 314 316 306 278 295 300 312 308 301 301 301 307 305 296 295 296 293 293 295 294 294 296 293 297 295 295 292 292
302 302 303 303 305 307 308 308 307 308 310 310 310 310 310 307 304 307 310 314 310 288 278 290 299 299 299 301 299 301 303 307 304 296 297 295 300 297 297 298 298 300 299 298 296 295 289
302 302 303 302 305 306 308 309 307 308 310 310 310 310 308 308 299 308 310 303 289 282 292 290 292 297 297 295 297 297 297 297 295 291 291 295 296 300 300 296 299 300 296 287 287 287 286
302 302 303 302 304 305 306 308 308 308 309 310 310 309 308 307 307 309 306 292 282 288 288 296 295 295 292 295 295 295 294 294 299 296 291 289 287 297 301 299 295 296 296 289 283 285 288
300 301 302 302 303 304 304 306 309 308 308 309 309 306 304 306 309 306 295 282 285 288 293 293 294 290 290 292 293 294 292 292 297 298 289 289 288 298 301 302 301 295 292 298 292 291 289
301 300 301 302 302 302 303 304 308 308 309 309 304 301 300 306 307 300 287 284 286 295 295 295 288 292 287 290 290 291 291 295 294 299 300 295 288 295 298 301 301 299 301 292 293 285 283
299 300 300 300 302 302 302 302 303 308 309 309 301 293 300 305 304 294 282 284 288 293 297 294 292 290 291 290 291 289 290 294 296 297 300 297 294 293 297 294 293 295 295 296 296 292 287
298 299 300 300 300 302 301 301 302 303 308 306 293 285 298 302 287 285 285 287 292 293 296 295 296 294 292 292 291 290 290 292 298 298 294 298 295 290 292 300 300 299 296 297 291 288 292
297 298 299 300 300 301 301 301 300 301 303 301 286 288 299 299 282 283 287 288 292 293 293 293 294 297 296 293 289 292 293 298 299 297 295 297 292 287 288 294 299 294 296 297 297 295 292
297 298 298 299 299 300 300 300 300 300 301 296 288 283 289 293 289 286 285 287 287 295 294 295 295 299 296 293 295 292 293 300 300 298 301 300 293 289 285 290 296 293 295 296 295 290 290
298 298 298 299 299 300 301 300 300 300 301 297 287 285 290 284 285 285 289 289 287 288 295 297 294 296 295 290 292 291 296 299 301 300 300 298 290 292 293 296 296 296 296 296 293 294 291
296 297 299 298 298 300 301 300 301 303 301 295 285 286 287 286 288 285 287 287 288 289 291 290 291 295 296 292 294 292 296 297 297 299 297 299 291 294 291 294 296 294 296 297 298 298 298
296 297 297 298 298 299 300 300 301 305 301 292 294 296 292 288 286 285 286 289 291 293 292 295 294 294 294 296 299 300 301 301 301 298 296 295 293 291 289 295 294 288 294 297 298 300 299
297 297 297 297 298 299 299 300 303 304 301 295 295 295 288 284 285 287 289 291 292 293 291 294 297 295 296 302 302 300 298 299 301 299 300 294 293 292 289 290 283 296 301 302 299 301 302
297 298 298 297 297 298 299 300 302 304 304 299 298 294 289 285 286 289 291 291 294 295 293 295 297 299 303 300 292 287 288 290 292 297 299 299 292 286 287 287 291 294 296 296 297 297 303
297 298 298 297 297 298 299 299 300 302 304 300 298 300 294 285 285 293 292 294 290 291 292 295 299 303 300 291 287 285 284 287 286 290 297 298 295 289 284 284 283 293 297 301 302 291 302
297 298 297 296 296 297 298 299 300 301 301 300 297 299 296 286 293 293 292 292 296 294 291 293 295 296 299 286 285 285 285 291 285 285 287 288 289 286 285 284 288 295 296 302 289 292 301
297 298 298 296 297 297 298 299 300 300 299 298 295 297 296 290 292 296 295 293 295 295 289 292 292 289 290 285 285 285 286 287 287 289 289 288 286 285 286 284 283 296 297 294 298 295 300
298 298 298 297 297 297 298 298 300 299 299 297 292 295 295 292 289 295 297 298 298 297 295 295 294 290 292 288 287 288 286 287 288 284 293 287 292 289 290 290 297 298 301 301 296 297 297
Wind_Speed
22 23 24 23 23 22 24 23 21 20 19 18 16 13 12 13 3 10 11 11 9 8 8 6 5 8 6 3 8 3 7 7 3 1 2 2 3 3 3 2 2 3 2 2 3 7 7
23 25 24 23 24 25 26 24 22 22 21 20 19 16 14 13 9 5 5 11 10 8 8 6 4 6 1 7 3 3 9 4 4 2 1 1 3 3 3 2 2 1 3 6 6 10 6
25 25 25 24 25 27 27 26 24 24 23 21 20 18 16 14 12 7 6 13 12 10 9 7 4 1 4 14 0 4 6 2 2 3 2 1 3 2 3 0 0 1 5 7 7 3 7
26 26 25 26 24 25 25 26 27 26 25 24 22 21 17 15 12 7 4 13 12 12 10 7 4 2 8 6 6 13 5 6 2 2 1 1 1 3 1 1 3 1 2 4 1 4 2
27 27 26 28 28 27 24 25 27 28 28 26 25 23 20 16 13 10 5 15 13 13 9 8 3 3 9 2 4 12 7 6 3 2 0 1 2 2 2 4 2 4 4 4 7 1 2
27 28 27 27 28 29 29 25 25 29 30 29 27 25 23 19 15 11 7 18 13 12 5 3 2 3 7 6 4 4 5 8 3 5 2 2 3 4 3 6 9 6 5 5 7 1 2
26 27 30 29 31 32 31 29 26 27 30 30 28 27 25 21 18 13 7 8 10 5 9 10 9 5 2 3 3 4 4 10 7 4 9 3 6 13 16 12 3 5 3 6 5 4 7
27 29 30 31 31 31 32 31 29 26 28 30 30 28 27 23 20 16 9 10 20 9 6 13 3 15 9 3 2 6 9 11 11 15 9 6 18 14 6 9 10 7 8 11 14 11 6
27 29 30 32 33 34 35 32 30 28 28 31 30 29 28 25 18 9 15 26 14 6 6 11 15 8 5 9 6 6 13 5 9 14 20 19 5 15 13 10 10 9 11 8 11 9 8
28 30 29 33 36 36 33 32 31 28 27 30 30 30 29 23 16 10 19 21 14 5 4 11 14 17 15 5 9 12 13 6 6 19 11 14 9 8 14 14 13 10 12 10 9 5 8
28 30 29 34 36 35 27 27 28 27 26 30 30 30 29 30 9 19 18 11 15 5 11 15 18 10 18 23 9 13 10 4 10 9 10 10 11 19 15 9 16 7 6 10 4 6 4
28 30 27 33 34 34 22 16 22 25 25 28 30 31 32 20 10 13 14 13 10 11 15 12 14 20 20 24 17 7 13 4 5 8 4 6 2 9 8 6 18 9 7 4 3 2 10
27 29 29 31 31 32 21 22 24 25 25 27 30 32 29 15 23 14 12 12 17 15 11 15 13 21 24 19 27 14 18 21 12 11 12 5 8 3 5 8 10 10 9 3 4 5 12
27 27 30 30 31 31 32 29 25 27 25 26 29 31 27 17 12 13 12 17 20 19 23 14 17 22 22 19 21 27 20 20 24 10 10 15 11 15 10 8 11 18 11 7 8 6 7
27 28 28 29 31 30 31 36 18 29 27 27 28 15 15 16 12 10 14 19 12 28 29 19 23 23 15 17 13 23 29 28 23 23 16 11 12 7 9 6 13 8 13 7 5 3 7
27 27 28 28 28 29 28 31 18 24 26 28 14 11 14 16 13 9 7 26 7 15 24 21 19 13 20 27 16 24 26 23 21 28 12 7 4 6 15 13 13 9 12 5 3 7 9
28 28 27 28 27 27 27 27 29 13 24 29 7 8 7 13 7 9 12 9 18 20 19 25 16 11 14 23 19 25 26 10 30 23 21 5 4 2 11 13 19 9 9 5 6 6 6
26 27 26 27 27 26 26 26 24 25 23 22 4 7 5 12 10 3 7 9 10 15 25 21 9 5 15 22 20 19 19 24 21 23 30 21 4 7 10 1 8 20 17 13 8 8 6
25 27 27 27 26 26 24 24 25 22 13 7 5 3 5 11 10 14 4 10 14 18 17 27 7 6 10 16 13 16 18 12 10 26 23 21 8 6 4 7 5 14 14 16 12 3 15
24 25 27 27 28 26 25 25 24 23 20 2 4 4 2 7 3 12 10 13 20 13 20 13 13 9 8 12 5 20 10 3 12 25 10 22 5 21 18 5 11 10 20 17 19 10 21
25 26 27 28 28 28 26 26 28 26 22 3 4 4 3 6 9 13 23 15 22 10 22 7 5 16 11 8 14 9 12 6 5 12 11 14 15 13 15 2 8 12 18 21 21 25 14
26 26 27 27 28 28 27 34 33 26 23 4 5 5 4 3 7 18 18 21 29 28 14 22 12 12 5 10 9 10 15 6 8 3 14 4 4 7 12 12 9 4 10 25 26 24 22
26 26 27 27 28 29 30 36 41 21 27 4 4 2 4 6 6 14 10 15 25 25 7 31 13 13 5 3 9 8 7 7 11 14 14 12 7 5 9 6 6 4 23 19 14 20 17
27 27 27 27 27 28 30 35 33 32 19 5 3 3 3 3 8 12 18 13 24 26 17 13 13 11 3 12 9 8 11 10 9 8 5 9 8 3 5 5 15 17 9 18 21 21 20
27 27 26 26 26 26 27 30 32 22 12 5 2 3 3 3 3 15 20 24 22 20 4 14 3 6 13 5 5 5 3 3 3 7 6 3 5 4 6 10 17 15 9 10 14 26 20
26 28 25 24 24 24 24 24 26 20 6 4 2 2 3 2 4 9 20 20 12 19 12 6 5 5 8 4 3 7 10 6 5 5 10 9 4 4 5 9 11 8 7 11 7 23 16
26 27 23 22 22 22 22 22 21 17 7 3 1 0 2 3 3 6 2 12 6 12 10 3 9 4 7 4 3 6 10 1 9 12 9 7 9 16 10 8 7 7 4 9 12 5 12
25 25 22 21 20 19 19 20 19 13 8 3 2 1 1 2 3 4 5 3 3 7 8 6 8 1 5 9 6 5 5 7 6 7 7 10 10 5 6 9 16 12 10 20 7 2 7
24 24 20 19 17 17 18 18 17 14 11 4 3 4 3 3 3 4 6 11 6 4 7 9 5 6 6 5 4 4 4 5 8 6 6 7 8 9 11 9 3 15 8 6 4 5 6
Wind_Direction
305 303 302 295 287 282 279 276 275 264 262 256 240 235 237 248 228 352 216 201 197 212 237 255 289 325 339 252 250 7 18 329 322 19 82 117 151 151 194 186 159 204 278 185 293 299 275
307 305 298 295 289 281 275 272 266 264 254 252 238 232 230 240 236 236 291 205 183 198 217 235 275 330 233 243 271 59 8 358 14 26 84 116 169 184 147 181 191 189 281 273 263 255 243
317 312 308 302 301 278 267 262 259 255 251 246 244 228 226 228 237 209 300 206 188 185 203 215 198 139 237 234 353 323 335 324 320 336 110 125 138 162 140 193 31 150 303 309 225 250 237
315 314 318 317 314 310 274 259 254 251 245 240 237 232 221 222 227 229 249 201 185 167 193 192 184 139 246 245 267 276 260 274 251 248 233 198 169 107 148 116 26 356 107 305 313 170 341
315 314 317 315 312 307 302 271 255 247 241 235 233 230 219 216 211 227 220 196 172 155 175 163 172 184 262 289 202 244 207 204 164 141 311 81 85 112 92 124 347 11 262 246 303 212 146
316 314 311 309 306 302 295 289 276 251 239 233 231 226 215 207 207 210 216 186 146 107 177 128 270 182 236 219 205 196 194 177 156 128 118 104 60 162 133 171 226 184 224 231 251 68 118
314 314 312 307 307 296 289 287 282 271 234 227 226 223 213 204 200 178 174 150 145 189 208 187 176 249 102 310 260 203 179 153 129 147 184 177 201 212 195 204 150 132 195 269 265 219 314
319 317 311 311 304 294 289 279 277 277 233 222 219 218 210 202 197 176 207 226 193 136 183 236 139 239 263 26 309 207 162 160 178 195 145 193 232 220 212 189 211 207 236 259 288 282 200
320 319 313 313 308 299 286 269 263 265 238 219 216 213 207 197 181 172 216 231 195 159 174 186 213 199 222 189 231 227 179 155 185 179 193 204 209 197 194 195 195 220 217 227 255 315 262
323 321 320 319 314 304 288 266 243 246 241 216 211 207 200 182 188 196 225 214 221 230 220 194 197 216 213 168 245 199 190 158 186 201 171 228 208 156 198 221 197 237 211 221 233 274 272
325 323 329 326 319 315 297 281 227 233 237 211 206 203 193 182 164 192 211 188 211 198 210 191 181 171 186 195 124 202 174 167 175 166 170 213 186 199 207 194 182 217 171 192 184 208 309
327 327 334 332 325 326 327 267 229 232 224 209 202 197 189 191 211 215 196 162 215 214 198 155 141 173 157 200 196 128 174 198 157 165 242 215 192 196 207 183 170 146 125 105 82 159 258
328 329 332 336 332 335 321 303 227 227 218 205 196 191 183 180 207 191 185 195 213 206 155 150 161 172 173 176 198 176 183 192 178 177 200 184 217 206 167 119 166 166 140 190 218 192 250
332 333 337 340 340 342 351 327 230 217 209 196 190 185 183 199 192 176 201 199 230 170 193 146 150 168 184 155 200 192 182 195 213 205 178 201 220 189 180 177 169 191 179 182 204 204 278
336 338 338 341 345 351 352 344 280 202 200 188 185 182 187 191 179 195 205 220 217 163 185 147 145 161 197 183 163 181 200 203 197 200 204 186 230 173 187 175 150 178 217 216 274 214 273
338 339 341 339 344 352 358 351 330 189 190 178 184 179 193 174 182 217 223 218 218 215 187 165 162 181 172 178 167 184 186 207 206 201 200 195 203 199 187 194 224 197 138 162 212 214 232
337 339 342 342 341 350 355 359 357 202 177 169 175 181 159 140 146 219 221 221 224 257 258 196 176 150 173 170 182 185 190 188 194 190 198 164 185 115 149 203 184 172 192 200 165 191 217
333 336 339 341 342 346 350 351 349 344 174 169 110 172 150 141 195 183 234 189 198 248 240 208 189 121 162 172 175 183 193 199 190 176 192 199 139 183 198 131 209 213 204 175 188 189 234
335 334 338 339 341 340 342 341 334 330 295 159 124 120 150 153 204 214 215 204 197 215 235 209 203 143 169 164 164 185 200 196 173 180 184 177 204 183 233 262 184 213 208 211 215 101 218
336 334 336 336 335 336 334 333 324 314 308 69 146 138 204 178 178 215 201 202 202 232 235 198 202 151 144 169 176 187 181 161 182 190 162 164 157 208 212 207 152 196 201 204 197 215 238
334 338 337 335 334 332 326 329 311 292 277 243 163 190 134 187 217 209 205 182 196 210 215 206 186 194 175 158 185 171 168 131 95 180 165 169 210 204 223 69 181 202 192 197 198 218 204
336 336 334 334 334 331 329 323 306 273 238 180 154 153 155 202 166 188 210 202 193 202 189 216 173 188 151 158 197 172 157 155 163 107 173 177 185 168 228 218 217 220 219 219 213 222 233
337 335 335 336 336 335 337 325 316 210 172 127 181 130 117 165 212 193 204 198 192 171 233 205 185 167 102 121 108 87 77 95 143 161 174 164 148 141 229 171 157 227 231 230 225 231 230
335 334 334 338 339 340 343 336 336 165 152 115 114 121 132 256 203 221 195 201 183 183 176 176 170 156 161 130 97 71 63 70 73 80 112 149 166 129 220 95 241 247 253 237 234 234 233
333 331 335 339 342 345 347 352 14 135 84 81 115 116 123 269 226 208 195 188 198 189 149 165 110 119 157 78 80 69 37 63 176 173 164 129 126 154 204 232 263 294 234 202 196 244 229
334 332 338 340 344 348 349 357 6 11 121 72 59 71 114 11 256 275 186 185 173 195 190 122 65 127 71 82 99 198 188 152 183 173 181 165 111 176 131 229 237 244 225 202 188 257 207
337 337 340 343 343 348 350 354 358 10 353 139 136 37 130 251 244 313 77 169 136 146 192 110 161 119 116 125 143 176 216 198 218 222 218 198 201 214 205 224 253 223 201 142 185 263 205
337 341 338 341 341 348 352 355 5 15 29 99 119 347 121 271 339 349 16 351 81 144 152 158 124 128 150 184 184 168 166 186 163 171 181 169 170 184 197 219 247 153 172 199 210 232 192
335 340 343 338 344 348 354 359 11 33 44 46 74 328 305 111 308 300 31 25 16 352 139 178 139 161 153 139 175 154 167 154 167 196 188 196 190 179 192 205 165 190 204 185 181 181 202